Wetterdaten: Mittwoch, 01.04.2015
Datum Zeit Auen-Temp. Temp gefhlt Luftfeuchte Luftdruck Regen Wind Richtung Richtung Taupunkt Windben
01.04.2015 00:00 3,2 C 2,2 C 75 % 1012,8 hPa 0,0 mm 14,2 km/h (3 Bft) W-SW 247 -0,8 C 18,8 km/h (3 Bft)
01.04.2015 00:05 3,3 C 2,5 C 73 % 1012,9 hPa 0,0 mm 17,2 km/h (3 Bft) W-SW 247 -1,1 C 34,8 km/h (5 Bft)
01.04.2015 00:10 3,7 C 2,9 C 70 % 1012,9 hPa 0,0 mm 22,3 km/h (4 Bft) W 270 -1,3 C 31,9 km/h (5 Bft)
01.04.2015 00:15 4,1 C 3,2 C 69 % 1012,9 hPa 0,0 mm 26,7 km/h (4 Bft) W-NW 292 -1,1 C 55,3 km/h (7 Bft)
01.04.2015 00:20 4,1 C 2,9 C 68 % 1012,9 hPa 0,7 mm 27,0 km/h (4 Bft) N-NW 337 -1,3 C 29,5 km/h (5 Bft)
01.04.2015 00:25 4,3 C 3,4 C 67 % 1012,8 hPa 0,0 mm 27,7 km/h (4 Bft) W-SW 247 -1,3 C 25,2 km/h (4 Bft)
01.04.2015 00:30 4,1 C 3,3 C 67 % 1012,8 hPa 0,0 mm 26,4 km/h (4 Bft) W-SW 247 -1,5 C 36,5 km/h (5 Bft)
01.04.2015 00:35 4,1 C 3,0 C 67 % 1012,8 hPa 0,0 mm 25,0 km/h (4 Bft) NW 315 -1,5 C 53,9 km/h (7 Bft)
01.04.2015 00:40 4,2 C 3,4 C 66 % 1012,8 hPa 0,0 mm 25,7 km/h (4 Bft) W-SW 247 -1,6 C 17,4 km/h (3 Bft)
01.04.2015 00:45 4,2 C 3,3 C 66 % 1013,3 hPa 0,0 mm 29,4 km/h (5 Bft) W 270 -1,6 C 49,0 km/h (6 Bft)
01.04.2015 00:50 4,2 C 3,3 C 65 % 1013,3 hPa 0,0 mm 30,8 km/h (5 Bft) W 270 -1,8 C 55,9 km/h (7 Bft)
01.04.2015 00:52 4,0 C 2,8 C 66 % 1013,3 hPa 0,0 mm 27,7 km/h (4 Bft) W 270 -1,8 C 55,3 km/h (7 Bft)
01.04.2015 00:57 4,1 C 3,2 C 66 % 1013,3 hPa 0,0 mm 26,7 km/h (4 Bft) SW 225 -1,7 C 35,1 km/h (5 Bft)
01.04.2015 01:02 4,0 C 3,1 C 66 % 1013,2 hPa 0,0 mm 27,7 km/h (4 Bft) W-NW 292 -1,8 C 35,3 km/h (5 Bft)
01.04.2015 01:07 4,1 C 2,8 C 66 % 1013,2 hPa 0,0 mm 28,1 km/h (4 Bft) W-SW 247 -1,7 C 50,7 km/h (7 Bft)
01.04.2015 01:12 4,3 C 3,3 C 66 % 1013,2 hPa 0,0 mm 32,1 km/h (5 Bft) W-NW 292 -1,5 C 45,5 km/h (6 Bft)
01.04.2015 01:17 4,3 C 2,9 C 65 % 1013,2 hPa 0,0 mm 32,8 km/h (5 Bft) W-SW 247 -1,7 C 31,0 km/h (5 Bft)
01.04.2015 01:22 4,2 C 3,3 C 64 % 1013,2 hPa 0,0 mm 33,5 km/h (5 Bft) W-NW 292 -2,0 C 42,3 km/h (6 Bft)
01.04.2015 01:27 4,3 C 2,9 C 63 % 1013,2 hPa 0,0 mm 34,1 km/h (5 Bft) W-SW 247 -2,1 C 37,1 km/h (5 Bft)
01.04.2015 01:32 4,2 C 3,2 C 62 % 1013,2 hPa 0,0 mm 36,2 km/h (5 Bft) W 270 -2,4 C 19,1 km/h (3 Bft)
01.04.2015 01:37 4,1 C 3,2 C 62 % 1013,2 hPa 0,0 mm 31,8 km/h (5 Bft) SW 225 -2,5 C 47,2 km/h (6 Bft)
01.04.2015 01:40 4,1 C 2,8 C 62 % 1013,2 hPa 0,0 mm 31,8 km/h (5 Bft) SW 225 -2,5 C 47,2 km/h (6 Bft)
01.04.2015 01:45 4,1 C 3,2 C 61 % 1013,3 hPa 0,0 mm 29,7 km/h (5 Bft) W 270 -2,7 C 37,1 km/h (5 Bft)
01.04.2015 01:50 4,1 C 3,1 C 61 % 1013,3 hPa 0,0 mm 31,8 km/h (5 Bft) NW 315 -2,7 C 24,3 km/h (4 Bft)
01.04.2015 01:55 4,0 C 3,1 C 61 % 1013,3 hPa 0,0 mm 29,1 km/h (5 Bft) W-NW 292 -2,8 C 24,3 km/h (4 Bft)
01.04.2015 02:00 4,0 C 3,1 C 61 % 1013,3 hPa 0,0 mm 29,7 km/h (5 Bft) N-NO 22 -2,8 C 40,0 km/h (6 Bft)
01.04.2015 02:05 3,8 C 2,9 C 61 % 1013,1 hPa 0,0 mm 28,1 km/h (4 Bft) W 270 -3,0 C 31,6 km/h (5 Bft)
01.04.2015 02:10 3,7 C 2,8 C 61 % 1013,1 hPa 0,0 mm 24,0 km/h (4 Bft) NW 315 -3,1 C 25,2 km/h (4 Bft)
01.04.2015 02:15 3,7 C 2,5 C 61 % 1013,1 hPa 0,0 mm 23,7 km/h (4 Bft) W-NW 292 -3,1 C 25,8 km/h (4 Bft)
01.04.2015 02:20 3,7 C 2,8 C 61 % 1013,1 hPa 0,0 mm 29,4 km/h (5 Bft) W-SW 247 -3,1 C 60,8 km/h (7 Bft)
01.04.2015 02:25 3,4 C 2,5 C 64 % 1013,5 hPa 0,0 mm 31,1 km/h (5 Bft) W 270 -2,7 C 33,6 km/h (5 Bft)
01.04.2015 02:30 3,2 C 2,2 C 66 % 1013,5 hPa 0,0 mm 28,7 km/h (4 Bft) NW 315 -2,5 C 33,3 km/h (5 Bft)
01.04.2015 02:35 3,2 C 2,1 C 68 % 1013,5 hPa 0,0 mm 27,7 km/h (4 Bft) W 270 -2,1 C 29,0 km/h (5 Bft)
01.04.2015 02:40 3,1 C 2,0 C 68 % 1013,5 hPa 0,0 mm 25,3 km/h (4 Bft) W-SW 247 -2,2 C 38,8 km/h (5 Bft)
01.04.2015 02:45 3,2 C 2,1 C 66 % 1013,4 hPa 0,0 mm 25,7 km/h (4 Bft) W-NW 292 -2,5 C 31,0 km/h (5 Bft)
01.04.2015 02:50 3,4 C 2,3 C 66 % 1013,4 hPa 0,0 mm 29,7 km/h (5 Bft) W-NW 292 -2,3 C 38,5 km/h (5 Bft)
01.04.2015 02:55 3,4 C 2,4 C 66 % 1013,4 hPa 0,0 mm 29,1 km/h (5 Bft) W 270 -2,3 C 25,8 km/h (4 Bft)
01.04.2015 03:00 3,2 C 2,3 C 67 % 1013,4 hPa 0,0 mm 23,3 km/h (4 Bft) W-SW 247 -2,3 C 22,6 km/h (4 Bft)
01.04.2015 03:05 3,3 C 2,4 C 67 % 1013,3 hPa 0,0 mm 23,0 km/h (4 Bft) W 270 -2,2 C 36,8 km/h (5 Bft)
01.04.2015 03:10 3,3 C 2,1 C 66 % 1013,3 hPa 0,0 mm 24,7 km/h (4 Bft) SW 225 -2,4 C 35,6 km/h (5 Bft)
01.04.2015 03:15 3,4 C 2,1 C 65 % 1013,3 hPa 0,0 mm 25,0 km/h (4 Bft) W-NW 292 -2,5 C 17,7 km/h (3 Bft)
01.04.2015 03:20 3,4 C 2,6 C 65 % 1013,3 hPa 0,0 mm 23,7 km/h (4 Bft) W 270 -2,5 C 11,0 km/h (2 Bft)
01.04.2015 03:25 3,4 C 2,6 C 65 % 1013,4 hPa 0,0 mm 19,9 km/h (4 Bft) W 270 -2,5 C 24,9 km/h (4 Bft)
01.04.2015 03:30 3,1 C 2,4 C 67 % 1013,4 hPa 0,0 mm 21,6 km/h (4 Bft) W-SW 247 -2,4 C 24,9 km/h (4 Bft)
01.04.2015 03:35 2,5 C 1,8 C 71 % 1013,4 hPa 0,0 mm 25,3 km/h (4 Bft) W-SW 247 -2,2 C 20,9 km/h (4 Bft)
01.04.2015 03:40 2,3 C 1,4 C 72 % 1013,4 hPa 0,0 mm 23,7 km/h (4 Bft) W 270 -2,2 C 13,6 km/h (3 Bft)
01.04.2015 03:45 2,5 C 1,5 C 71 % 1013,4 hPa 0,0 mm 21,0 km/h (4 Bft) W 270 -2,2 C 22,3 km/h (4 Bft)
01.04.2015 03:50 2,5 C 1,5 C 70 % 1013,4 hPa 0,0 mm 20,3 km/h (4 Bft) W-SW 247 -2,4 C 15,1 km/h (3 Bft)
01.04.2015 03:55 2,4 C 1,5 C 69 % 1013,4 hPa 0,0 mm 18,6 km/h (3 Bft) NW 315 -2,7 C 26,4 km/h (4 Bft)
01.04.2015 04:00 2,3 C 1,2 C 69 % 1013,4 hPa 0,0 mm 17,6 km/h (3 Bft) SW 225 -2,8 C 22,6 km/h (4 Bft)
01.04.2015 04:05 2,5 C 1,6 C 68 % 1013,5 hPa 0,0 mm 19,9 km/h (4 Bft) W 270 -2,8 C 35,9 km/h (5 Bft)
01.04.2015 04:10 2,5 C 1,6 C 68 % 1013,5 hPa 0,0 mm 21,6 km/h (4 Bft) W-SW 247 -2,8 C 20,0 km/h (4 Bft)
01.04.2015 04:15 2,3 C 1,5 C 69 % 1013,5 hPa 0,0 mm 18,2 km/h (3 Bft) W-SW 247 -2,8 C 10,4 km/h (2 Bft)
01.04.2015 04:20 2,3 C 1,4 C 71 % 1013,5 hPa 0,0 mm 14,2 km/h (3 Bft) W 270 -2,4 C 19,4 km/h (3 Bft)
01.04.2015 04:25 2,6 C 1,9 C 72 % 1013,6 hPa 0,0 mm 18,6 km/h (3 Bft) W 270 -1,9 C 24,9 km/h (4 Bft)
01.04.2015 04:30 2,4 C 1,6 C 73 % 1013,6 hPa 0,0 mm 21,6 km/h (4 Bft) W 270 -1,9 C 24,3 km/h (4 Bft)
01.04.2015 04:35 2,2 C 1,4 C 75 % 1013,6 hPa 0,0 mm 19,9 km/h (4 Bft) W 270 -1,8 C 24,3 km/h (4 Bft)
01.04.2015 04:40 2,1 C 1,3 C 76 % 1013,6 hPa 0,0 mm 18,2 km/h (3 Bft) W-NW 292 -1,7 C 23,8 km/h (4 Bft)
01.04.2015 04:45 2,1 C 1,0 C 76 % 1013,5 hPa 0,0 mm 16,9 km/h (3 Bft) S 180 -1,7 C 13,6 km/h (3 Bft)
01.04.2015 04:50 2,2 C 1,3 C 76 % 1013,5 hPa 0,0 mm 19,3 km/h (3 Bft) NW 315 -1,6 C 23,2 km/h (4 Bft)
01.04.2015 04:55 2,3 C 1,0 C 75 % 1013,5 hPa 0,0 mm 20,6 km/h (4 Bft) O-SO 112 -1,7 C 27,8 km/h (4 Bft)
01.04.2015 05:00 2,5 C 1,1 C 74 % 1013,5 hPa 0,0 mm 21,6 km/h (4 Bft) W 270 -1,7 C 22,6 km/h (4 Bft)
01.04.2015 05:05 2,5 C 1,1 C 73 % 1013,7 hPa 0,0 mm 22,3 km/h (4 Bft) W-SW 247 -1,8 C 17,7 km/h (3 Bft)
01.04.2015 05:10 2,5 C 1,5 C 72 % 1013,7 hPa 0,0 mm 20,3 km/h (4 Bft) W-SW 247 -2,0 C 13,9 km/h (3 Bft)
01.04.2015 05:12 2,6 C 1,7 C 71 % 1013,7 hPa 0,0 mm 20,4 km/h (4 Bft) W 270 -2,1 C 37,4 km/h (5 Bft)
01.04.2015 05:17 2,6 C 1,8 C 71 % 1013,7 hPa 0,0 mm 21,5 km/h (4 Bft) W 270 -2,1 C 22,6 km/h (4 Bft)
01.04.2015 05:22 2,7 C 1,9 C 69 % 1013,9 hPa 0,0 mm 26,7 km/h (4 Bft) W-SW 247 -2,4 C 24,4 km/h (4 Bft)
01.04.2015 05:27 2,7 C 1,8 C 69 % 1013,9 hPa 0,0 mm 27,4 km/h (4 Bft) W 270 -2,4 C 34,8 km/h (5 Bft)
01.04.2015 05:32 2,7 C 1,8 C 69 % 1013,9 hPa 0,0 mm 27,4 km/h (4 Bft) SW 225 -2,4 C 44,8 km/h (6 Bft)
01.04.2015 05:37 2,8 C 1,9 C 68 % 1013,9 hPa 0,0 mm 30,4 km/h (5 Bft) W-NW 292 -2,5 C 21,1 km/h (4 Bft)
01.04.2015 05:42 2,7 C 1,4 C 67 % 1014,1 hPa 0,0 mm 30,4 km/h (5 Bft) SW 225 -2,8 C 30,7 km/h (5 Bft)
01.04.2015 05:47 2,7 C 1,8 C 67 % 1014,1 hPa 0,0 mm 29,6 km/h (5 Bft) NW 315 -2,8 C 36,6 km/h (5 Bft)
01.04.2015 05:52 2,7 C 1,4 C 67 % 1014,1 hPa 0,0 mm 29,2 km/h (5 Bft) W-SW 247 -2,8 C 33,3 km/h (5 Bft)
01.04.2015 05:57 2,7 C 1,8 C 67 % 1014,1 hPa 0,0 mm 28,1 km/h (4 Bft) NW 315 -2,8 C 40,7 km/h (6 Bft)
01.04.2015 06:02 1,9 C 1,3 C 69 % 1014,6 hPa 0,0 mm 29,6 km/h (5 Bft) NW 315 -3,2 C 38,9 km/h (6 Bft)
01.04.2015 06:07 0,8 C 0,1 C 75 % 1014,6 hPa 0,0 mm 35,5 km/h (5 Bft) W 270 -3,1 C 38,9 km/h (6 Bft)
01.04.2015 06:12 0,5 C -0,5 C 77 % 1014,6 hPa 0,0 mm 34,8 km/h (5 Bft) W 270 -3,1 C 23,7 km/h (4 Bft)
01.04.2015 06:17 0,4 C -1,2 C 78 % 1014,6 hPa 0,0 mm 30,0 km/h (5 Bft) W 270 -3,0 C 20,7 km/h (4 Bft)
01.04.2015 06:22 0,2 C -1,3 C 79 % 1014,7 hPa 0,0 mm 27,8 km/h (4 Bft) NW 315 -3,0 C 24,4 km/h (4 Bft)
01.04.2015 06:27 0,1 C -0,9 C 80 % 1014,7 hPa 0,0 mm 22,9 km/h (4 Bft) W 270 -2,9 C 24,8 km/h (4 Bft)
01.04.2015 06:32 -0,1 C -1,4 C 81 % 1014,7 hPa 0,0 mm 21,8 km/h (4 Bft) W-NW 292 -3,0 C 18,5 km/h (3 Bft)
01.04.2015 06:37 -0,2 C -1,1 C 81 % 1014,7 hPa 0,0 mm 20,0 km/h (4 Bft) N-NW 337 -3,1 C 30,0 km/h (5 Bft)
01.04.2015 06:42 -0,3 C -1,1 C 76 % 1014,4 hPa 0,0 mm 18,1 km/h (3 Bft) NW 315 -4,0 C 16,7 km/h (3 Bft)
01.04.2015 06:47 -0,3 C -1,2 C 76 % 1014,4 hPa 0,0 mm 21,5 km/h (4 Bft) W 270 -4,0 C 20,4 km/h (4 Bft)
01.04.2015 06:52 -0,3 C -1,2 C 76 % 1014,4 hPa 0,0 mm 20,0 km/h (4 Bft) NW 315 -4,0 C 22,2 km/h (4 Bft)
01.04.2015 06:57 -0,3 C -1,2 C 83 % 1014,4 hPa 0,0 mm 18,1 km/h (3 Bft) W-NW 292 -2,8 C 17,4 km/h (3 Bft)
01.04.2015 07:02 -0,3 C -1,1 C 77 % 1015,1 hPa 0,0 mm 18,5 km/h (3 Bft) W 270 -3,8 C 25,2 km/h (4 Bft)
01.04.2015 07:07 -0,2 C -1,0 C 77 % 1015,1 hPa 0,0 mm 18,9 km/h (3 Bft) W 270 -3,7 C 29,6 km/h (5 Bft)
01.04.2015 07:12 -0,2 C -1,0 C 77 % 1015,1 hPa 0,0 mm 17,8 km/h (3 Bft) W 270 -3,7 C 15,5 km/h (3 Bft)
01.04.2015 07:17 -0,2 C -1,2 C 77 % 1015,1 hPa 0,0 mm 16,7 km/h (3 Bft) NW 315 -3,7 C 18,9 km/h (3 Bft)
01.04.2015 07:22 -0,2 C -1,2 C 77 % 1015,8 hPa 0,0 mm 16,3 km/h (3 Bft) W 270 -3,7 C 21,5 km/h (4 Bft)
01.04.2015 07:27 -0,4 C -1,2 C 85 % 1015,8 hPa 0,0 mm 21,1 km/h (4 Bft) NW 315 -2,6 C 44,0 km/h (6 Bft)
01.04.2015 07:32 -0,8 C -1,8 C 87 % 1015,8 hPa 0,0 mm 34,1 km/h (5 Bft) W-NW 292 -2,7 C 53,7 km/h (7 Bft)
01.04.2015 07:37 -1,1 C -2,3 C 89 % 1015,8 hPa 0,0 mm 40,0 km/h (6 Bft) W 270 -2,7 C 39,6 km/h (6 Bft)
01.04.2015 07:42 -1,3 C -3,1 C 90 % 1016,1 hPa 0,0 mm 35,5 km/h (5 Bft) W 270 -2,7 C 32,9 km/h (5 Bft)
01.04.2015 07:47 -1,4 C -3,1 C 90 % 1016,1 hPa 0,0 mm 31,8 km/h (5 Bft) W-NW 292 -2,8 C 32,6 km/h (5 Bft)
01.04.2015 07:52 -1,5 C -2,7 C 81 % 1016,1 hPa 0,0 mm 32,6 km/h (5 Bft) W-SW 247 -4,3 C 40,7 km/h (6 Bft)
01.04.2015 07:57 -1,5 C -2,7 C 91 % 1016,1 hPa 0,0 mm 30,0 km/h (5 Bft) W-SW 247 -2,8 C 28,1 km/h (4 Bft)
01.04.2015 08:02 -1,5 C -2,7 C 92 % 1016,6 hPa 0,0 mm 28,9 km/h (5 Bft) W 270 -2,6 C 37,4 km/h (5 Bft)
01.04.2015 08:03 -1,5 C -3,1 C 92 % 1016,6 hPa 0,0 mm 28,9 km/h (5 Bft) W 270 -2,6 C 37,4 km/h (5 Bft)
01.04.2015 08:05 -1,5 C -3,1 C 92 % 1016,6 hPa 0,0 mm 28,9 km/h (5 Bft) W 270 -2,6 C 37,4 km/h (5 Bft)
01.04.2015 08:10 -1,5 C -2,6 C 82 % 1016,6 hPa 0,0 mm 30,4 km/h (5 Bft) W-NW 292 -4,2 C 52,9 km/h (7 Bft)
01.04.2015 08:15 -1,5 C -2,5 C 82 % 1016,6 hPa 0,0 mm 26,7 km/h (4 Bft) W-NW 292 -4,2 C 27,8 km/h (4 Bft)
01.04.2015 08:20 -1,5 C -2,4 C 82 % 1016,6 hPa 0,0 mm 24,1 km/h (4 Bft) W-NW 292 -4,2 C 20,4 km/h (4 Bft)
01.04.2015 08:25 -1,5 C -2,2 C 82 % 1016,7 hPa 0,0 mm 21,5 km/h (4 Bft) NW 315 -4,2 C 20,7 km/h (4 Bft)
01.04.2015 08:30 -1,5 C -2,3 C 83 % 1016,7 hPa 0,0 mm 17,0 km/h (3 Bft) NW 315 -4,0 C 7,4 km/h (2 Bft)
01.04.2015 08:35 -1,5 C -2,2 C 83 % 1016,7 hPa 0,0 mm 15,9 km/h (3 Bft) W-SW 247 -4,0 C 21,8 km/h (4 Bft)
01.04.2015 08:40 -1,5 C -2,3 C 83 % 1016,7 hPa 0,0 mm 16,7 km/h (3 Bft) W 270 -4,0 C 33,3 km/h (5 Bft)
01.04.2015 08:45 -1,5 C -2,3 C 83 % 1016,8 hPa 0,0 mm 15,2 km/h (3 Bft) SW 225 -4,0 C 11,1 km/h (2 Bft)
01.04.2015 08:50 -1,5 C -2,3 C 83 % 1016,8 hPa 0,0 mm 15,2 km/h (3 Bft) W 270 -4,0 C 22,9 km/h (4 Bft)
01.04.2015 08:55 -1,5 C -2,1 C 83 % 1016,8 hPa 0,0 mm 14,4 km/h (3 Bft) W 270 -4,0 C 15,2 km/h (3 Bft)
01.04.2015 08:57 -1,5 C -1,8 C 83 % 1016,8 hPa 0,0 mm 12,2 km/h (2 Bft) SW 225 -4,0 C 13,7 km/h (3 Bft)
01.04.2015 09:02 -1,4 C -1,5 C 83 % 1016,6 hPa 0,0 mm 10,4 km/h (2 Bft) W-SW 247 -3,9 C 16,7 km/h (3 Bft)
01.04.2015 09:07 -1,4 C -1,4 C 83 % 1016,6 hPa 0,0 mm 10,4 km/h (2 Bft) SW 225 -3,9 C 15,2 km/h (3 Bft)
01.04.2015 09:12 -1,3 C -1,3 C 83 % 1016,6 hPa 0,0 mm 13,0 km/h (3 Bft) W-SW 247 -3,8 C 21,8 km/h (4 Bft)
01.04.2015 09:17 -1,1 C -1,4 C 83 % 1016,6 hPa 0,0 mm 14,4 km/h (3 Bft) W-NW 292 -3,6 C 16,7 km/h (3 Bft)
01.04.2015 09:22 -1,0 C -1,0 C 83 % 1016,9 hPa 0,0 mm 15,5 km/h (3 Bft) W-SW 247 -3,5 C 31,1 km/h (5 Bft)
01.04.2015 09:27 -1,0 C -0,9 C 83 % 1016,9 hPa 0,0 mm 14,1 km/h (3 Bft) W-SW 247 -3,5 C 16,7 km/h (3 Bft)
01.04.2015 09:32 -0,9 C -0,8 C 83 % 1016,9 hPa 0,0 mm 14,1 km/h (3 Bft) W 270 -3,4 C 20,0 km/h (4 Bft)
01.04.2015 09:37 -0,9 C -0,9 C 83 % 1016,9 hPa 0,0 mm 14,8 km/h (3 Bft) W 270 -3,4 C 24,4 km/h (4 Bft)
01.04.2015 09:42 -0,9 C -1,2 C 83 % 1017,0 hPa 0,0 mm 17,0 km/h (3 Bft) W-NW 292 -3,4 C 16,7 km/h (3 Bft)
01.04.2015 09:47 -0,8 C -0,8 C 83 % 1017,0 hPa 0,0 mm 18,5 km/h (3 Bft) W 270 -3,3 C 33,7 km/h (5 Bft)
01.04.2015 09:52 -0,6 C -0,8 C 83 % 1017,0 hPa 0,0 mm 17,4 km/h (3 Bft) W-SW 247 -3,1 C 26,7 km/h (4 Bft)
01.04.2015 09:57 -0,6 C -0,7 C 83 % 1017,0 hPa 0,0 mm 17,0 km/h (3 Bft) W 270 -3,1 C 25,2 km/h (4 Bft)
01.04.2015 10:02 -0,5 C -0,2 C 83 % 1017,4 hPa 0,0 mm 17,8 km/h (3 Bft) W-SW 247 -3,0 C 24,4 km/h (4 Bft)
01.04.2015 10:07 -0,5 C -0,2 C 83 % 1017,4 hPa 0,0 mm 19,6 km/h (3 Bft) NW 315 -3,0 C 27,0 km/h (4 Bft)
01.04.2015 10:12 -0,4 C -0,3 C 83 % 1017,4 hPa 0,0 mm 20,0 km/h (4 Bft) S-SW 202 -2,9 C 26,7 km/h (4 Bft)
01.04.2015 10:17 -0,4 C -0,3 C 83 % 1017,4 hPa 0,0 mm 20,7 km/h (4 Bft) W-NW 292 -2,9 C 25,2 km/h (4 Bft)
01.04.2015 10:22 -0,3 C -0,7 C 83 % 1017,7 hPa 0,0 mm 21,5 km/h (4 Bft) W 270 -2,8 C 20,0 km/h (4 Bft)
01.04.2015 10:27 -0,3 C -0,3 C 83 % 1017,7 hPa 0,0 mm 24,1 km/h (4 Bft) W 270 -2,8 C 36,3 km/h (5 Bft)
01.04.2015 10:32 -0,1 C -0,6 C 83 % 1017,7 hPa 0,0 mm 23,7 km/h (4 Bft) W 270 -2,6 C 31,1 km/h (5 Bft)
01.04.2015 10:37 -0,1 C -0,3 C 83 % 1017,7 hPa 0,0 mm 23,3 km/h (4 Bft) W-SW 247 -2,6 C 24,4 km/h (4 Bft)
01.04.2015 10:42 -0,3 C -0,3 C 83 % 1018,4 hPa 0,0 mm 18,9 km/h (3 Bft) S-SO 157 -2,8 C 14,8 km/h (3 Bft)
01.04.2015 10:47 -0,3 C -0,4 C 83 % 1018,4 hPa 0,0 mm 18,9 km/h (3 Bft) W 270 -2,8 C 21,8 km/h (4 Bft)
01.04.2015 10:50 -0,3 C -0,7 C 83 % 1018,4 hPa 0,0 mm 18,9 km/h (3 Bft) W 270 -2,8 C 21,8 km/h (4 Bft)
01.04.2015 10:55 -0,3 C -0,3 C 83 % 1018,4 hPa 0,0 mm 18,1 km/h (3 Bft) W 270 -2,8 C 21,1 km/h (4 Bft)
01.04.2015 11:00 -0,3 C -0,4 C 83 % 1018,4 hPa 0,0 mm 18,1 km/h (3 Bft) W-NW 292 -2,8 C 30,4 km/h (5 Bft)
01.04.2015 11:05 -0,3 C -0,4 C 83 % 1018,4 hPa 0,0 mm 22,2 km/h (4 Bft) W-NW 292 -2,8 C 34,1 km/h (5 Bft)
01.04.2015 11:10 -0,3 C -0,3 C 83 % 1018,4 hPa 0,0 mm 24,1 km/h (4 Bft) NW 315 -2,8 C 28,1 km/h (4 Bft)
01.04.2015 11:15 -0,1 C -0,1 C 83 % 1018,4 hPa 0,0 mm 21,1 km/h (4 Bft) W 270 -2,6 C 21,5 km/h (4 Bft)
01.04.2015 11:20 -0,2 C 0,1 C 83 % 1018,4 hPa 0,0 mm 18,9 km/h (3 Bft) NW 315 -2,7 C 23,3 km/h (4 Bft)
01.04.2015 11:25 0,1 C 0,8 C 83 % 1018,6 hPa 0,0 mm 21,8 km/h (4 Bft) W-SW 247 -2,4 C 19,2 km/h (3 Bft)
01.04.2015 11:30 0,3 C 1,1 C 83 % 1018,6 hPa 0,0 mm 23,7 km/h (4 Bft) W 270 -2,2 C 20,4 km/h (4 Bft)
01.04.2015 11:35 0,4 C 1,4 C 83 % 1018,6 hPa 0,0 mm 21,1 km/h (4 Bft) W-SW 247 -2,1 C 17,4 km/h (3 Bft)
01.04.2015 11:40 0,5 C 2,0 C 82 % 1018,6 hPa 0,0 mm 19,6 km/h (3 Bft) W-SW 247 -2,2 C 17,0 km/h (3 Bft)
01.04.2015 11:45 0,7 C 2,4 C 82 % 1018,9 hPa 0,0 mm 18,9 km/h (3 Bft) W-SW 247 -2,0 C 29,2 km/h (5 Bft)
01.04.2015 11:50 0,8 C 2,9 C 82 % 1018,9 hPa 0,0 mm 19,6 km/h (3 Bft) W-SW 247 -1,9 C 18,1 km/h (3 Bft)
01.04.2015 11:55 1,0 C 3,3 C 81 % 1018,9 hPa 0,0 mm 21,5 km/h (4 Bft) W-SW 247 -1,9 C 32,9 km/h (5 Bft)
01.04.2015 12:00 1,0 C 3,4 C 80 % 1018,9 hPa 0,0 mm 22,2 km/h (4 Bft) SW 225 -2,1 C 31,8 km/h (5 Bft)
01.04.2015 12:05 1,0 C 3,2 C 80 % 1019,1 hPa 0,0 mm 21,8 km/h (4 Bft) W-SW 247 -2,1 C 25,9 km/h (4 Bft)
01.04.2015 12:10 0,8 C 2,8 C 80 % 1019,1 hPa 0,0 mm 20,0 km/h (4 Bft) W 270 -2,2 C 21,1 km/h (4 Bft)
01.04.2015 12:15 0,9 C 3,0 C 79 % 1019,1 hPa 0,0 mm 19,6 km/h (3 Bft) O-SO 112 -2,3 C 34,8 km/h (5 Bft)
01.04.2015 12:20 0,9 C 2,8 C 79 % 1019,1 hPa 0,0 mm 19,6 km/h (3 Bft) W-NW 292 -2,3 C 14,1 km/h (3 Bft)
01.04.2015 12:25 1,1 C 3,5 C 79 % 1018,9 hPa 0,0 mm 21,1 km/h (4 Bft) NW 315 -2,1 C 15,2 km/h (3 Bft)
01.04.2015 12:30 1,1 C 3,5 C 79 % 1018,9 hPa 0,0 mm 19,2 km/h (3 Bft) W-SW 247 -2,1 C 18,1 km/h (3 Bft)
01.04.2015 12:35 1,2 C 4,4 C 78 % 1018,9 hPa 0,0 mm 20,4 km/h (4 Bft) S-SW 202 -2,2 C 45,5 km/h (6 Bft)
01.04.2015 12:40 1,3 C 4,5 C 78 % 1018,9 hPa 0,0 mm 21,1 km/h (4 Bft) W-SW 247 -2,1 C 32,6 km/h (5 Bft)
01.04.2015 12:45 0,9 C 3,9 C 78 % 1019,1 hPa 0,0 mm 20,4 km/h (4 Bft) W-SW 247 -2,5 C 21,5 km/h (4 Bft)
01.04.2015 12:50 0,9 C 3,2 C 78 % 1019,1 hPa 0,0 mm 20,0 km/h (4 Bft) S-SW 202 -2,5 C 19,2 km/h (3 Bft)
01.04.2015 12:55 0,9 C 3,0 C 78 % 1019,1 hPa 0,0 mm 17,4 km/h (3 Bft) NW 315 -2,5 C 26,3 km/h (4 Bft)
01.04.2015 13:00 0,8 C 2,7 C 78 % 1019,1 hPa 0,0 mm 19,6 km/h (3 Bft) W 270 -2,6 C 22,6 km/h (4 Bft)
01.04.2015 13:05 0,7 C 2,1 C 78 % 1019,0 hPa 0,0 mm 22,2 km/h (4 Bft) W 270 -2,7 C 17,8 km/h (3 Bft)
01.04.2015 13:10 0,7 C 2,0 C 78 % 1019,0 hPa 0,0 mm 18,5 km/h (3 Bft) SW 225 -2,7 C 18,9 km/h (3 Bft)
01.04.2015 13:15 0,5 C 1,7 C 78 % 1019,0 hPa 0,0 mm 20,7 km/h (4 Bft) W 270 -2,9 C 43,7 km/h (6 Bft)
01.04.2015 13:20 0,5 C 1,5 C 78 % 1019,0 hPa 0,0 mm 25,5 km/h (4 Bft) W-NW 292 -2,9 C 34,8 km/h (5 Bft)
01.04.2015 13:25 0,3 C 0,8 C 78 % 1019,1 hPa 0,0 mm 28,1 km/h (4 Bft) SW 225 -3,1 C 58,1 km/h (7 Bft)
01.04.2015 13:30 0,2 C 0,5 C 78 % 1019,1 hPa 0,0 mm 25,9 km/h (4 Bft) W 270 -3,2 C 23,3 km/h (4 Bft)
01.04.2015 13:35 0,1 C 0,1 C 79 % 1019,1 hPa 0,0 mm 25,2 km/h (4 Bft) W-NW 292 -3,1 C 31,5 km/h (5 Bft)
01.04.2015 13:40 0,0 C 0,1 C 79 % 1019,1 hPa 0,0 mm 25,9 km/h (4 Bft) W-NW 292 -3,2 C 37,8 km/h (5 Bft)
01.04.2015 13:45 -0,1 C -0,4 C 79 % 1019,0 hPa 0,0 mm 28,1 km/h (4 Bft) NW 315 -3,3 C 25,2 km/h (4 Bft)
01.04.2015 13:50 -0,1 C 0,1 C 80 % 1019,0 hPa 0,0 mm 27,8 km/h (4 Bft) W 270 -3,1 C 42,9 km/h (6 Bft)
01.04.2015 13:55 0,1 C 0,9 C 80 % 1019,0 hPa 0,0 mm 26,7 km/h (4 Bft) W 270 -2,9 C 28,1 km/h (4 Bft)
01.04.2015 14:00 0,3 C 1,4 C 80 % 1019,0 hPa 0,0 mm 25,5 km/h (4 Bft) W 270 -2,7 C 33,7 km/h (5 Bft)
01.04.2015 14:05 0,4 C 1,6 C 80 % 1018,7 hPa 0,7 mm 22,6 km/h (4 Bft) NW 315 -2,6 C 24,4 km/h (4 Bft)
01.04.2015 14:10 0,7 C 2,1 C 79 % 1018,7 hPa 0,0 mm 24,4 km/h (4 Bft) W 270 -2,5 C 37,0 km/h (5 Bft)
01.04.2015 14:15 1,2 C 3,8 C 79 % 1018,7 hPa 0,0 mm 25,5 km/h (4 Bft) W 270 -2,0 C 28,1 km/h (4 Bft)
01.04.2015 14:20 1,2 C 4,0 C 79 % 1018,7 hPa 0,0 mm 22,9 km/h (4 Bft) W 270 -2,0 C 15,5 km/h (3 Bft)
01.04.2015 14:25 1,6 C 5,6 C 78 % 1019,3 hPa 0,7 mm 21,1 km/h (4 Bft) W-SW 247 -1,8 C 17,8 km/h (3 Bft)
01.04.2015 14:30 1,8 C 6,0 C 77 % 1019,3 hPa 0,0 mm 21,8 km/h (4 Bft) W-SW 247 -1,8 C 29,2 km/h (5 Bft)
01.04.2015 14:35 1,6 C 6,5 C 77 % 1019,3 hPa 0,7 mm 20,4 km/h (4 Bft) W 270 -2,0 C 20,0 km/h (4 Bft)
01.04.2015 14:40 1,9 C 6,6 C 77 % 1019,3 hPa 0,0 mm 18,1 km/h (3 Bft) W-NW 292 -1,7 C 30,7 km/h (5 Bft)
01.04.2015 14:45 1,8 C 6,1 C 76 % 1019,4 hPa 0,7 mm 16,7 km/h (3 Bft) W 270 -2,0 C 26,3 km/h (4 Bft)
01.04.2015 14:50 1,5 C 5,5 C 76 % 1019,4 hPa 0,0 mm 18,1 km/h (3 Bft) W-SW 247 -2,3 C 21,8 km/h (4 Bft)
01.04.2015 14:55 1,8 C 4,3 C 76 % 1019,4 hPa 0,0 mm 20,7 km/h (4 Bft) W 270 -2,0 C 25,5 km/h (4 Bft)
01.04.2015 15:00 1,8 C 4,1 C 76 % 1019,4 hPa 0,7 mm 22,2 km/h (4 Bft) W 270 -2,0 C 24,1 km/h (4 Bft)
01.04.2015 15:05 2,7 C 6,1 C 75 % 1019,2 hPa 0,0 mm 20,7 km/h (4 Bft) W 270 -1,3 C 18,5 km/h (3 Bft)
01.04.2015 15:10 2,4 C 5,7 C 74 % 1019,2 hPa 0,0 mm 21,8 km/h (4 Bft) SW 225 -1,7 C 37,4 km/h (5 Bft)
01.04.2015 15:15 2,1 C 4,7 C 73 % 1019,2 hPa 0,0 mm 24,1 km/h (4 Bft) W 270 -2,2 C 22,2 km/h (4 Bft)
01.04.2015 15:20 2,0 C 3,8 C 73 % 1019,2 hPa 0,0 mm 23,3 km/h (4 Bft) W 270 -2,3 C 32,9 km/h (5 Bft)
01.04.2015 15:25 1,9 C 3,4 C 73 % 1019,1 hPa 0,7 mm 18,5 km/h (3 Bft) NW 315 -2,4 C 21,5 km/h (4 Bft)
01.04.2015 15:30 1,9 C 3,2 C 73 % 1019,1 hPa 0,0 mm 18,1 km/h (3 Bft) W 270 -2,4 C 24,1 km/h (4 Bft)
01.04.2015 15:35 1,8 C 2,8 C 73 % 1019,1 hPa 0,0 mm 20,7 km/h (4 Bft) W-SW 247 -2,5 C 19,6 km/h (3 Bft)
01.04.2015 15:40 1,6 C 2,5 C 74 % 1019,1 hPa 0,0 mm 20,4 km/h (4 Bft) W 270 -2,5 C 40,0 km/h (6 Bft)
01.04.2015 15:45 1,8 C 3,1 C 74 % 1019,1 hPa 0,0 mm 20,7 km/h (4 Bft) W 270 -2,3 C 30,7 km/h (5 Bft)
01.04.2015 15:50 1,8 C 2,8 C 74 % 1019,1 hPa 0,0 mm 24,4 km/h (4 Bft) W-SW 247 -2,3 C 28,1 km/h (4 Bft)
01.04.2015 15:55 1,6 C 3,0 C 74 % 1019,1 hPa 0,0 mm 24,4 km/h (4 Bft) W-SW 247 -2,5 C 18,5 km/h (3 Bft)
01.04.2015 16:00 1,9 C 3,3 C 74 % 1019,1 hPa 0,0 mm 22,9 km/h (4 Bft) W-NW 292 -2,2 C 15,9 km/h (3 Bft)
01.04.2015 16:05 2,1 C 3,9 C 74 % 1019,0 hPa 0,0 mm 18,9 km/h (3 Bft) W-NW 292 -2,0 C 17,0 km/h (3 Bft)
01.04.2015 16:10 1,9 C 3,7 C 74 % 1019,0 hPa 0,0 mm 19,6 km/h (3 Bft) W 270 -2,2 C 24,4 km/h (4 Bft)
01.04.2015 16:15 1,6 C 2,7 C 74 % 1019,0 hPa 0,0 mm 22,2 km/h (4 Bft) SW 225 -2,5 C 66,3 km/h (8 Bft)
01.04.2015 16:20 1,4 C 2,0 C 74 % 1019,0 hPa 0,0 mm 22,2 km/h (4 Bft) W 270 -2,7 C 27,8 km/h (4 Bft)
01.04.2015 16:25 1,4 C 2,1 C 74 % 1018,9 hPa 0,0 mm 22,2 km/h (4 Bft) W-SW 247 -2,7 C 22,9 km/h (4 Bft)
01.04.2015 16:30 1,5 C 2,6 C 74 % 1018,9 hPa 0,0 mm 17,8 km/h (3 Bft) W 270 -2,6 C 26,3 km/h (4 Bft)
01.04.2015 16:35 1,6 C 2,5 C 74 % 1018,9 hPa 0,0 mm 20,0 km/h (4 Bft) W 270 -2,5 C 35,5 km/h (5 Bft)
01.04.2015 16:40 1,6 C 2,4 C 73 % 1018,9 hPa 0,0 mm 21,8 km/h (4 Bft) O-NO 67 -2,7 C 21,8 km/h (4 Bft)
01.04.2015 16:45 1,8 C 2,8 C 73 % 1018,6 hPa 0,0 mm 17,8 km/h (3 Bft) W 270 -2,5 C 23,7 km/h (4 Bft)
01.04.2015 16:50 1,6 C 2,2 C 73 % 1018,6 hPa 0,0 mm 20,0 km/h (4 Bft) W 270 -2,7 C 34,8 km/h (5 Bft)
01.04.2015 16:55 0,9 C 1,0 C 74 % 1018,6 hPa 0,0 mm 25,9 km/h (4 Bft) W 270 -3,2 C 27,0 km/h (4 Bft)
01.04.2015 17:00 0,5 C 0,3 C 75 % 1018,6 hPa 0,0 mm 30,7 km/h (5 Bft) W 270 -3,4 C 61,1 km/h (7 Bft)
01.04.2015 17:05 0,3 C -0,1 C 76 % 1019,1 hPa 0,0 mm 36,6 km/h (5 Bft) W 270 -3,4 C 48,5 km/h (6 Bft)
01.04.2015 17:10 0,3 C 0,2 C 76 % 1019,1 hPa 0,0 mm 34,8 km/h (5 Bft) NO 45 -3,4 C 27,8 km/h (4 Bft)
01.04.2015 17:15 0,4 C 0,8 C 76 % 1019,1 hPa 0,0 mm 26,3 km/h (4 Bft) W 270 -3,3 C 53,7 km/h (7 Bft)
01.04.2015 17:20 0,5 C 0,8 C 76 % 1019,1 hPa 0,0 mm 25,5 km/h (4 Bft) W-NW 292 -3,2 C 40,7 km/h (6 Bft)
01.04.2015 17:25 0,5 C 0,7 C 77 % 1018,9 hPa 0,0 mm 25,9 km/h (4 Bft) W 270 -3,1 C 29,6 km/h (5 Bft)
01.04.2015 17:30 0,5 C 0,4 C 76 % 1018,9 hPa 0,0 mm 27,0 km/h (4 Bft) NW 315 -3,2 C 40,3 km/h (6 Bft)
01.04.2015 17:35 0,4 C 0,0 C 76 % 1018,9 hPa 0,0 mm 24,8 km/h (4 Bft) NW 315 -3,3 C 30,7 km/h (5 Bft)
01.04.2015 17:40 0,5 C 0,1 C 76 % 1018,9 hPa 0,0 mm 22,9 km/h (4 Bft) W-NW 292 -3,2 C 33,3 km/h (5 Bft)
01.04.2015 17:45 0,7 C 0,2 C 76 % 1019,1 hPa 0,0 mm 22,6 km/h (4 Bft) W 270 -3,0 C 24,1 km/h (4 Bft)
01.04.2015 17:50 0,7 C 0,3 C 76 % 1019,1 hPa 0,0 mm 21,1 km/h (4 Bft) W 270 -3,0 C 16,7 km/h (3 Bft)
01.04.2015 17:55 0,7 C 0,2 C 76 % 1019,1 hPa 0,0 mm 20,4 km/h (4 Bft) W-SW 247 -3,0 C 13,7 km/h (3 Bft)
01.04.2015 18:00 0,7 C 0,3 C 76 % 1019,1 hPa 0,0 mm 19,6 km/h (3 Bft) SW 225 -3,0 C 18,1 km/h (3 Bft)
01.04.2015 18:05 0,7 C 0,3 C 76 % 1019,1 hPa 0,0 mm 18,1 km/h (3 Bft) W 270 -3,0 C 25,5 km/h (4 Bft)
01.04.2015 18:10 0,7 C 0,2 C 76 % 1019,1 hPa 0,0 mm 17,8 km/h (3 Bft) W-SW 247 -3,0 C 30,0 km/h (5 Bft)
01.04.2015 18:15 0,7 C 0,5 C 77 % 1019,1 hPa 0,0 mm 17,8 km/h (3 Bft) W-SW 247 -2,9 C 16,3 km/h (3 Bft)
01.04.2015 18:20 0,5 C 0,3 C 77 % 1019,1 hPa 0,0 mm 18,1 km/h (3 Bft) W-SW 247 -3,1 C 21,8 km/h (4 Bft)
01.04.2015 18:25 0,5 C 0,2 C 77 % 1019,2 hPa 0,0 mm 18,5 km/h (3 Bft) W-SW 247 -3,1 C 8,9 km/h (2 Bft)
01.04.2015 18:30 0,5 C 0,0 C 78 % 1019,2 hPa 0,0 mm 16,7 km/h (3 Bft) W-SW 247 -2,9 C 26,7 km/h (4 Bft)
01.04.2015 18:35 0,5 C 0,0 C 78 % 1019,2 hPa 0,0 mm 16,7 km/h (3 Bft) S 180 -2,9 C 23,7 km/h (4 Bft)
01.04.2015 18:40 0,5 C 0,3 C 78 % 1019,2 hPa 0,0 mm 19,6 km/h (3 Bft) SW 225 -2,9 C 20,0 km/h (4 Bft)
01.04.2015 18:45 0,7 C 0,2 C 79 % 1019,3 hPa 0,0 mm 18,5 km/h (3 Bft) W-SW 247 -2,5 C 28,1 km/h (4 Bft)
01.04.2015 18:50 0,7 C -0,1 C 79 % 1019,3 hPa 0,0 mm 17,0 km/h (3 Bft) W 270 -2,5 C 24,8 km/h (4 Bft)
01.04.2015 18:55 0,7 C 0,2 C 78 % 1019,3 hPa 0,0 mm 17,8 km/h (3 Bft) NW 315 -2,7 C 35,9 km/h (5 Bft)
01.04.2015 19:00 0,8 C 0,3 C 78 % 1019,3 hPa 0,0 mm 19,2 km/h (3 Bft) S-SW 202 -2,6 C 31,8 km/h (5 Bft)
01.04.2015 19:05 0,8 C 0,1 C 78 % 1019,3 hPa 0,0 mm 22,6 km/h (4 Bft) NW 315 -2,6 C 41,1 km/h (6 Bft)
01.04.2015 19:10 0,5 C 0,0 C 78 % 1019,3 hPa 0,0 mm 23,7 km/h (4 Bft) W 270 -2,9 C 15,9 km/h (3 Bft)
01.04.2015 19:15 0,3 C -0,4 C 79 % 1019,3 hPa 0,0 mm 22,6 km/h (4 Bft) SW 225 -2,9 C 11,8 km/h (2 Bft)
01.04.2015 19:20 0,3 C -0,5 C 79 % 1019,3 hPa 0,0 mm 19,6 km/h (3 Bft) S-SW 202 -2,9 C 21,8 km/h (4 Bft)
01.04.2015 19:25 0,2 C -0,6 C 79 % 1019,5 hPa 0,0 mm 23,3 km/h (4 Bft) W 270 -3,0 C 30,7 km/h (5 Bft)
01.04.2015 19:30 0,2 C -0,8 C 84 % 1019,5 hPa 0,0 mm 24,1 km/h (4 Bft) W-NW 292 -2,2 C 30,4 km/h (5 Bft)
01.04.2015 19:35 0,2 C -0,7 C 79 % 1019,5 hPa 0,0 mm 22,6 km/h (4 Bft) W-SW 247 -3,0 C 32,9 km/h (5 Bft)
01.04.2015 19:40 0,3 C -0,6 C 79 % 1019,5 hPa 0,0 mm 24,8 km/h (4 Bft) SW 225 -2,9 C 29,6 km/h (5 Bft)
01.04.2015 19:45 0,1 C -0,9 C 85 % 1019,9 hPa 0,0 mm 26,3 km/h (4 Bft) W-NW 292 -2,1 C 35,5 km/h (5 Bft)
01.04.2015 19:50 -0,2 C -1,2 C 86 % 1019,9 hPa 0,0 mm 27,0 km/h (4 Bft) W 270 -2,3 C 19,6 km/h (3 Bft)
01.04.2015 19:55 -0,3 C -1,3 C 88 % 1019,9 hPa 0,0 mm 24,4 km/h (4 Bft) W-SW 247 -2,0 C 50,3 km/h (7 Bft)
01.04.2015 20:00 -0,3 C -1,3 C 88 % 1019,9 hPa 0,0 mm 18,9 km/h (3 Bft) W 270 -2,0 C 12,2 km/h (2 Bft)
01.04.2015 20:05 -0,3 C -1,4 C 81 % 1020,0 hPa 0,0 mm 17,4 km/h (3 Bft) NW 315 -3,2 C 10,4 km/h (2 Bft)
01.04.2015 20:10 -0,1 C -1,3 C 87 % 1020,0 hPa 0,0 mm 15,9 km/h (3 Bft) SW 225 -2,0 C 16,7 km/h (3 Bft)
01.04.2015 20:15 -0,2 C -1,1 C 81 % 1020,0 hPa 0,0 mm 15,9 km/h (3 Bft) S 180 -3,1 C 19,2 km/h (3 Bft)
01.04.2015 20:20 0,0 C -1,0 C 81 % 1020,0 hPa 0,0 mm 17,0 km/h (3 Bft) W 270 -2,9 C 29,6 km/h (5 Bft)
01.04.2015 20:25 0,0 C -0,7 C 81 % 1020,1 hPa 0,0 mm 18,5 km/h (3 Bft) SW 225 -2,9 C 21,8 km/h (4 Bft)
01.04.2015 20:30 0,1 C -0,7 C 81 % 1020,1 hPa 0,0 mm 21,1 km/h (4 Bft) W 270 -2,8 C 60,7 km/h (7 Bft)
01.04.2015 20:35 0,0 C -1,2 C 81 % 1020,1 hPa 0,0 mm 21,5 km/h (4 Bft) N 360 -2,9 C 20,0 km/h (4 Bft)
01.04.2015 20:40 0,0 C -0,8 C 81 % 1020,1 hPa 0,0 mm 18,9 km/h (3 Bft) SW 225 -2,9 C 14,1 km/h (3 Bft)
01.04.2015 20:45 0,0 C -1,0 C 85 % 1020,2 hPa 0,0 mm 16,3 km/h (3 Bft) W 270 -2,2 C 15,5 km/h (3 Bft)
01.04.2015 20:50 -0,2 C -0,9 C 82 % 1020,2 hPa 0,0 mm 20,7 km/h (4 Bft) W-SW 247 -2,9 C 39,2 km/h (6 Bft)
01.04.2015 20:55 -0,3 C -1,2 C 88 % 1020,2 hPa 0,0 mm 27,4 km/h (4 Bft) W 270 -2,0 C 43,3 km/h (6 Bft)
01.04.2015 21:00 -0,4 C -1,4 C 83 % 1020,2 hPa 0,0 mm 27,8 km/h (4 Bft) W 270 -2,9 C 28,1 km/h (4 Bft)
01.04.2015 21:05 -0,4 C -1,4 C 89 % 1020,6 hPa 0,0 mm 22,9 km/h (4 Bft) W 270 -2,0 C 27,8 km/h (4 Bft)
01.04.2015 21:10 -0,4 C -1,3 C 83 % 1020,6 hPa 0,0 mm 20,4 km/h (4 Bft) W-SW 247 -2,9 C 13,7 km/h (3 Bft)
01.04.2015 21:15 -0,4 C -1,4 C 83 % 1020,6 hPa 0,0 mm 16,7 km/h (3 Bft) SW 225 -2,9 C 21,8 km/h (4 Bft)
01.04.2015 21:20 -0,3 C -1,4 C 83 % 1020,6 hPa 0,0 mm 17,0 km/h (3 Bft) W 270 -2,8 C 15,9 km/h (3 Bft)
01.04.2015 21:25 -0,3 C -1,3 C 88 % 1020,8 hPa 0,0 mm 20,4 km/h (4 Bft) W-SW 247 -2,0 C 30,0 km/h (5 Bft)
01.04.2015 21:30 -0,4 C -1,7 C 83 % 1020,8 hPa 0,0 mm 19,6 km/h (3 Bft) W-NW 292 -2,9 C 21,5 km/h (4 Bft)
01.04.2015 21:35 -0,4 C -1,4 C 86 % 1020,8 hPa 0,0 mm 18,5 km/h (3 Bft) W-SW 247 -2,4 C 27,4 km/h (4 Bft)
01.04.2015 21:40 -0,4 C -1,4 C 86 % 1020,8 hPa 0,0 mm 18,5 km/h (3 Bft) W 270 -2,4 C 30,4 km/h (5 Bft)
01.04.2015 21:45 -0,4 C -1,7 C 85 % 1020,9 hPa 0,0 mm 18,9 km/h (3 Bft) W-SW 247 -2,6 C 24,4 km/h (4 Bft)
01.04.2015 21:50 -0,4 C -1,4 C 84 % 1020,9 hPa 0,0 mm 18,9 km/h (3 Bft) W 270 -2,8 C 24,8 km/h (4 Bft)
01.04.2015 21:55 -0,4 C -1,4 C 84 % 1020,9 hPa 0,0 mm 17,8 km/h (3 Bft) SW 225 -2,8 C 20,4 km/h (4 Bft)
01.04.2015 22:00 -0,4 C -1,4 C 84 % 1020,9 hPa 0,0 mm 17,8 km/h (3 Bft) W 270 -2,8 C 38,5 km/h (5 Bft)
01.04.2015 22:05 -0,3 C -1,3 C 84 % 1021,2 hPa 0,0 mm 19,6 km/h (3 Bft) W-NW 292 -2,7 C 20,4 km/h (4 Bft)
01.04.2015 22:10 -0,3 C -1,3 C 84 % 1021,2 hPa 0,0 mm 19,2 km/h (3 Bft) W 270 -2,7 C 27,4 km/h (4 Bft)
01.04.2015 22:15 -0,3 C -1,4 C 82 % 1021,2 hPa 0,0 mm 17,4 km/h (3 Bft) W 270 -3,0 C 23,7 km/h (4 Bft)
01.04.2015 22:20 -0,2 C -1,4 C 82 % 1021,2 hPa 0,0 mm 18,1 km/h (3 Bft) W 270 -2,9 C 21,5 km/h (4 Bft)
01.04.2015 22:25 -0,1 C -1,3 C 84 % 1021,1 hPa 0,0 mm 17,4 km/h (3 Bft) W-NW 292 -2,5 C 25,9 km/h (4 Bft)
01.04.2015 22:30 0,0 C -1,0 C 84 % 1021,1 hPa 0,0 mm 18,5 km/h (3 Bft) SW 225 -2,4 C 20,4 km/h (4 Bft)
01.04.2015 22:35 0,1 C -1,2 C 81 % 1021,1 hPa 0,0 mm 20,7 km/h (4 Bft) W 270 -2,8 C 24,8 km/h (4 Bft)
01.04.2015 22:40 0,2 C -0,8 C 82 % 1021,1 hPa 0,0 mm 21,5 km/h (4 Bft) W 270 -2,5 C 18,5 km/h (3 Bft)
01.04.2015 22:45 0,2 C -0,7 C 81 % 1021,2 hPa 0,0 mm 21,1 km/h (4 Bft) W-NW 292 -2,7 C 17,4 km/h (3 Bft)
01.04.2015 22:50 0,2 C -0,7 C 80 % 1021,2 hPa 0,0 mm 23,7 km/h (4 Bft) SW 225 -2,8 C 24,8 km/h (4 Bft)
01.04.2015 22:55 0,2 C -0,8 C 80 % 1021,2 hPa 0,0 mm 23,3 km/h (4 Bft) W-NW 292 -2,8 C 20,0 km/h (4 Bft)
01.04.2015 23:00 0,3 C -0,7 C 80 % 1021,2 hPa 0,0 mm 21,1 km/h (4 Bft) W-SW 247 -2,7 C 33,7 km/h (5 Bft)
01.04.2015 23:05 0,3 C -0,6 C 79 % 1021,0 hPa 0,0 mm 20,0 km/h (4 Bft) W 270 -2,9 C 30,0 km/h (5 Bft)
01.04.2015 23:10 0,4 C -0,5 C 79 % 1021,0 hPa 0,0 mm 19,6 km/h (3 Bft) SW 225 -2,8 C 13,7 km/h (3 Bft)
01.04.2015 23:15 0,5 C -0,5 C 79 % 1021,0 hPa 0,0 mm 22,2 km/h (4 Bft) W 270 -2,7 C 28,1 km/h (4 Bft)
01.04.2015 23:20 0,5 C -0,5 C 78 % 1021,0 hPa 0,0 mm 26,3 km/h (4 Bft) W-SW 247 -2,9 C 37,8 km/h (5 Bft)
01.04.2015 23:25 0,6 C -0,5 C 78 % 1021,2 hPa 0,0 mm 24,4 km/h (4 Bft) NW 315 -2,8 C 42,9 km/h (6 Bft)
01.04.2015 23:30 0,6 C -0,8 C 77 % 1021,2 hPa 0,0 mm 23,7 km/h (4 Bft) W-SW 247 -3,0 C 26,3 km/h (4 Bft)
01.04.2015 23:35 0,6 C -0,4 C 76 % 1021,2 hPa 0,0 mm 22,2 km/h (4 Bft) W-SW 247 -3,1 C 22,2 km/h (4 Bft)
01.04.2015 23:40 0,6 C -0,4 C 76 % 1021,2 hPa 0,0 mm 21,8 km/h (4 Bft) W-SW 247 -3,1 C 38,1 km/h (5 Bft)
01.04.2015 23:45 0,7 C -0,7 C 76 % 1021,1 hPa 0,0 mm 21,8 km/h (4 Bft) W 270 -3,0 C 44,4 km/h (6 Bft)
01.04.2015 23:50 0,6 C -0,4 C 76 % 1021,1 hPa 0,0 mm 21,1 km/h (4 Bft) NW 315 -3,1 C 31,5 km/h (5 Bft)
01.04.2015 23:55 0,7 C -0,2 C 75 % 1021,1 hPa 0,0 mm 21,5 km/h (4 Bft) W 270 -3,2 C 21,5 km/h (4 Bft)
_ Min-Zeit 08:57 08:05 02:20 00:40 - 09:07 - - 07:52 08:30
Minimum _ -1,5 C -3,1 C 61 % 1012,8 hPa - 10,4 km/h (2 Bft) - - -4,3 C 7,4 km/h (2 Bft)
_ Max-Zeit 01:27 14:40 08:05 23:40 15:25 07:37 - - 00:00 16:15
Maximum _ 4,3 C 6,6 C 92 % 1021,2 hPa 0,7 mm 40,0 km/h
W (6 Bft)
- - -0,8 C 66,3 km/h
SW (8 Bft)
Durchschnitt _ 1,0 C 0,8 C 77 % 1017,3 hPa #4,8 mm 22,4 km/h (4 Bft) W - -2,7 C 27,7 km/h (4 Bft)